ATLAS 5 CENTAUR DEB, 44656

Orbit data source: Space-Track

ATLAS 5 CENTAUR DEB, 44656 is space debris in HEO originally from a launch on Wed, 17 Oct 2018 UTC launched from the Air Force Eastern Test Range (AFETR). Debris objects in space refer to the collection of defunct objects orbiting the Earth. Examples of debris include non-operational satellites, rocket bodies, and fragments generated from explosions, collisions, or faulty payload assembly.

Loading next visibility...
Identifier
44656, 2018-079S
Orbit
HEO
Country
Flag of USUS
Related business
Flag of USUnited Launch Alliance/Lockheed Martin (US)
Manufacturer
ULA Decatur
Mission
Spacecraft
Bus & Motor
Unknown
Mass
Unknown
Launch date (UTC)
2018-10-17 (7 years ago)
Launch vehicle
Unknown
Launch site
Air Force Eastern Test Range (AFETR)
Object type
Payload
Rocket body
Debris
Shape & HBR
Unknown
Radar Cross Section
RCS unknown

Expand to show TLE details & history
Last TLE update: 3 days ago

TLE from 3 days ago
0 ATLAS 5 CENTAUR DEB
1 44656U 18079S   25258.54715611 -.00000194  00000-0  00000-0 0  9997
2 44656  13.5218  49.9964 4615176 279.3409  33.0337  1.83303097 42742
Epoch: 2025-09-15T13:07Z
TLE epoch observation values (Epoch: 2025-09-15T13:07:54.287Z)
Latitude
-0.0001°
Longitude
-141.68242°
Altitude
14,246.544 km
Speed
4.952 km/s
True Right ascension
03h 20m 10s
True Declination
0° 00' 00"
Sunlit
Object was in daylight at epoch
Visualization orbit readout
Latitude
Unknown
Longitude
Unknown
Altitude
Unknown
Speed
Unknown
Apparent Right ascension
Unknown
Apparent Declination
Unknown
Sunlit
N/A
Visualization observer readout
Local Sidereal Time
10:27:57
Azimuth
Unknown
Elevation
Unknown
Doppler factor
Unknown
Orbital elements
Apogee altitude
34,843.437 km
Perigee altitude
8,809.564 km
Semi-major axis
28,204.638 km
Eccentricity
0.46152
Inclination
13.5218°
RAAN
49.9964°
Arg. of periapsis
279.3409°
True anomaly
80.73076°
Mean anomaly
33.0337°
Eccentric anomaly
54.5838°
Mean motion
0.45821 °/min
Orbital period
785.67 mins
BSTAR
0
Loading maneuver chart data...
Computing Atmospheric mass density...

Documentation

Showing up to 5 results
|